Weather History for Sunlight Mountain, CO

Change the Weather History Date:

Wednesday, November 6, 2013

  Actual Average (KRIL) Record (KRIL)
Temperature  
Mean Temperature 20 °F 40 °F  
Max Temperature 28 °F 54 °F 75 °F (1934)
Min Temperature 12 °F 26 °F 10 °F (1933)
Degree Days  
Heating Degree Days 45 25  
Month to date heating degree days 144  
Since 1 July heating degree days 788  
Cooling Degree Days 0 0  
Month to date cooling degree days 0  
Year to date cooling degree days 541  
Moisture  
Dew Point 14 °F    
Average Humidity 81    
Maximum Humidity 93    
Minimum Humidity 68    
Precipitation  
Precipitation 0.00 in 0.05 in 0.47 in (1953)
Month to date precipitation 0.32  
Year to date precipitation 12.68  
Sea Level Pressure  
Sea Level Pressure 30.38 in    
Wind  
Wind Speed 0 mph (SW)    
Max Wind Speed 4 mph    
Max Gust Speed -    
Visibility 10 miles    
Events      
T = Trace of Precipitation, MM = Missing Value Source: NWS Daily Summary

Daily Weather History Graph

Daily Weather History Graph

Search for Another Location

Airport:

Trip Planner

Search our weather history database for the weather conditions in past years. The results will help you decide how hot, cold, wet, or windy it might be!

Date:

Astronomy

Nov. 06, 2013 Rise Set
Actual Time 6:43 AM MST 5:02 PM MST
Civil Twilight 6:15 AM MST 5:30 PM MST
Nautical Twilight 5:43 AM MST 6:02 PM MST
Astronomical Twilight 5:11 AM MST 6:33 PM MST
Moon 10:00 AM MST (11/6) 8:10 PM MST (11/6)
Length of Visible Light 11h 15m
Length of Day
10h 18m
Waxing Crescent, 14% of the Moon is Illuminated
Nov 6
Waxing Crescent
Nov 9
First Quarter
Nov 17
Full
Nov 25
Last Quarter
Dec 2
New

Hourly Weather History & Observations

Time (MST) Temp. Windchill Dew Point Humidity Pressure Visibility Wind Dir Wind Speed Gust Speed Precip Events Conditions
12:19 AM 12.2 °F - 8.6 °F 85% 30.24 in 10.0 mi Calm Calm - N/A   Clear
12:39 AM 12.2 °F - 8.6 °F 85% 30.25 in 10.0 mi Calm Calm - N/A   Clear
12:58 AM 12.2 °F - 8.6 °F 85% 30.25 in 10.0 mi Calm Calm - N/A   Clear
1:19 AM 12.2 °F 6.1 °F 8.6 °F 85% 30.26 in 10.0 mi SW 3.5 mph - N/A   Clear
1:38 AM 12.2 °F - 6.8 °F 79% 30.26 in 10.0 mi Calm Calm - N/A   Clear
1:59 AM 12.2 °F - 8.6 °F 85% 30.26 in 10.0 mi Calm Calm - N/A   Clear
2:19 AM 12.2 °F - 8.6 °F 85% 30.26 in 10.0 mi Calm Calm - N/A   Clear
2:39 AM 12.2 °F - 8.6 °F 85% 30.26 in 10.0 mi Calm Calm - N/A   Clear
2:59 AM 12.2 °F - 8.6 °F 85% 30.26 in 10.0 mi Calm Calm - N/A   Clear
3:19 AM 12.2 °F - 8.6 °F 85% 30.26 in 10.0 mi Calm Calm - N/A   Clear
3:39 AM 12.2 °F 6.1 °F 8.6 °F 85% 30.27 in 10.0 mi SW 3.5 mph - N/A   Clear
3:59 AM 12.2 °F - 8.6 °F 85% 30.27 in 10.0 mi Calm Calm - N/A   Clear
4:19 AM 12.2 °F - 8.6 °F 85% 30.27 in 10.0 mi Calm Calm - N/A   Clear
4:39 AM 12.2 °F - 6.8 °F 79% 30.27 in 10.0 mi Calm Calm - N/A   Clear
4:59 AM 14.0 °F - 8.6 °F 79% 30.28 in 10.0 mi Calm Calm - N/A   Clear
5:19 AM 14.0 °F - 8.6 °F 79% 30.29 in 10.0 mi Calm Calm - N/A   Clear
5:39 AM 14.0 °F - 8.6 °F 79% 30.29 in 10.0 mi Calm Calm - N/A   Mostly Cloudy
5:59 AM 14.0 °F - 8.6 °F 79% 30.29 in 10.0 mi Calm Calm - N/A   Mostly Cloudy
6:19 AM 14.0 °F 8.2 °F 8.6 °F 79% 30.30 in 10.0 mi SSW 3.5 mph - N/A   Scattered Clouds
6:39 AM 14.0 °F - 8.6 °F 79% 30.30 in 10.0 mi Calm Calm - N/A   Scattered Clouds
6:59 AM 14.0 °F - 8.6 °F 79% 30.30 in 10.0 mi Calm Calm - N/A   Mostly Cloudy
7:19 AM 14.0 °F - 8.6 °F 79% 30.30 in 7.0 mi Calm Calm - N/A   Scattered Clouds
7:39 AM 14.0 °F - 10.4 °F 86% 30.31 in 10.0 mi Calm Calm - N/A   Clear
7:59 AM 14.0 °F - 8.6 °F 79% 30.32 in 10.0 mi Calm Calm - N/A   Clear
8:19 AM 15.8 °F - 10.4 °F 79% 30.33 in 7.0 mi Calm Calm - N/A   Clear
8:39 AM 15.8 °F 10.2 °F 10.4 °F 79% 30.34 in 7.0 mi SW 3.5 mph - N/A   Clear
8:59 AM 17.6 °F 12.3 °F 10.4 °F 73% 30.34 in 7.0 mi SSW 3.5 mph - N/A   Clear
9:19 AM 17.6 °F 12.3 °F 10.4 °F 73% 30.34 in 10.0 mi SSW 3.5 mph - N/A   Clear
9:39 AM 19.4 °F - 12.2 °F 74% 30.35 in 7.0 mi Calm Calm - N/A   Scattered Clouds
9:59 AM 21.2 °F - 12.2 °F 68% 30.36 in 7.0 mi Calm Calm - N/A   Scattered Clouds
10:19 AM 21.2 °F 16.4 °F 14.0 °F 74% 30.37 in 10.0 mi SW 3.5 mph - N/A   Mostly Cloudy
10:39 AM 23.0 °F - 15.8 °F 74% 30.38 in 10.0 mi Calm Calm - N/A   Overcast
10:59 AM 23.0 °F - 15.8 °F 74% 30.39 in 7.0 mi Calm Calm - N/A   Overcast
11:19 AM 23.0 °F - 17.6 °F 80% 30.39 in 7.0 mi Calm Calm - N/A   Overcast
11:39 AM 23.0 °F - 17.6 °F 80% 30.39 in 10.0 mi Calm Calm - N/A   Overcast
11:59 AM 23.0 °F - 17.6 °F 80% 30.40 in 10.0 mi Calm Calm - N/A   Overcast
12:19 PM 23.0 °F - 17.6 °F 80% 30.40 in 10.0 mi Calm Calm - N/A   Overcast
12:39 PM 24.8 °F 20.5 °F 17.6 °F 74% 30.40 in 10.0 mi SW 3.5 mph - N/A   Overcast
12:59 PM 24.8 °F - 17.6 °F 74% 30.39 in 10.0 mi Calm Calm - N/A   Overcast
1:18 PM 26.6 °F - 19.4 °F 74% 30.40 in 7.0 mi Calm Calm - N/A   Overcast
1:38 PM 26.6 °F - 19.4 °F 74% 30.40 in 10.0 mi Calm Calm - N/A   Overcast
1:59 PM 26.6 °F - 19.4 °F 74% 30.41 in 10.0 mi Calm Calm - N/A   Overcast
2:19 PM 28.4 °F - 19.4 °F 69% 30.41 in 10.0 mi Calm Calm - N/A   Mostly Cloudy
2:39 PM 26.6 °F - 19.4 °F 74% 30.41 in 10.0 mi Calm Calm - N/A   Mostly Cloudy
2:59 PM 26.6 °F - 19.4 °F 74% 30.41 in 10.0 mi Calm Calm - N/A   Overcast
3:19 PM 26.6 °F - 21.2 °F 80% 30.42 in 10.0 mi Calm Calm - N/A   Mostly Cloudy
3:39 PM 26.6 °F - 19.4 °F 74% 30.42 in 10.0 mi Calm Calm - N/A   Scattered Clouds
3:59 PM 26.6 °F - 19.4 °F 74% 30.42 in 10.0 mi Calm Calm - N/A   Clear
4:19 PM 26.6 °F - 19.4 °F 74% 30.43 in 10.0 mi Calm Calm - N/A   Clear
4:39 PM 23.0 °F - 19.4 °F 86% 30.43 in 10.0 mi Calm Calm - N/A   Clear
4:59 PM 23.0 °F - 17.6 °F 80% 30.44 in 10.0 mi Calm Calm - N/A   Clear
5:19 PM 21.2 °F - 17.6 °F 86% 30.44 in 10.0 mi Calm Calm - N/A   Clear
5:38 PM 21.2 °F - 17.6 °F 86% 30.45 in 10.0 mi Calm Calm - N/A   Clear
5:58 PM 21.2 °F - 17.6 °F 86% 30.46 in 10.0 mi Calm Calm - N/A   Clear
6:19 PM 21.2 °F - 17.6 °F 86% 30.46 in 10.0 mi Calm Calm - N/A   Clear
6:39 PM 21.2 °F 16.4 °F 17.6 °F 86% 30.47 in 10.0 mi SW 3.5 mph - N/A   Clear
6:59 PM 21.2 °F - 17.6 °F 86% 30.47 in 10.0 mi Calm Calm - N/A   Clear
7:19 PM 19.4 °F - 17.6 °F 93% 30.48 in 10.0 mi Calm Calm - N/A   Clear
7:39 PM 19.4 °F - 17.6 °F 93% 30.49 in 10.0 mi Calm Calm - N/A   Clear
7:59 PM 21.2 °F - 17.6 °F 86% 30.49 in 10.0 mi Calm Calm - N/A   Clear
8:19 PM 21.2 °F 16.4 °F 17.6 °F 86% 30.49 in 10.0 mi SW 3.5 mph - N/A   Clear
8:40 PM 21.2 °F - 17.6 °F 86% 30.50 in 10.0 mi Calm Calm - N/A   Clear
9:00 PM 21.2 °F - 17.6 °F 86% 30.50 in 10.0 mi Calm Calm - N/A   Clear
9:20 PM 21.2 °F - 17.6 °F 86% 30.50 in 10.0 mi Calm Calm - N/A   Clear
9:39 PM 23.0 °F - 17.6 °F 80% 30.50 in 10.0 mi Calm Calm - N/A   Clear
10:00 PM 23.0 °F - 17.6 °F 80% 30.50 in 10.0 mi Calm Calm - N/A   Clear
10:20 PM 21.2 °F - 17.6 °F 86% 30.51 in 10.0 mi Calm Calm - N/A   Clear
10:40 PM 23.0 °F - 17.6 °F 80% 30.51 in 10.0 mi Calm Calm - N/A   Clear
11:00 PM 23.0 °F - 17.6 °F 80% 30.52 in 10.0 mi Calm Calm - N/A   Clear
11:20 PM 23.0 °F - 17.6 °F 80% 30.52 in 10.0 mi Calm Calm - N/A   Clear
11:40 PM 23.0 °F - 17.6 °F 80% 30.52 in 10.0 mi Calm Calm - N/A   Clear